[[{"header":{"parameterUnit":"m.s-1","parameterCategory":1,"la1":30.2991,"la2":30.254,"lo1":-89.0895,"lo2":-89.0444,"dy":0.0017,"dx":0.0017,"nx":28,"ny":28,"refTime":"2024-07-17T03:00:00:Z","depth":0,"parameterNumber":2,"parameterNumberName":"U-component_of_WINDS"},"data":[0,0,0,0,0,0,0,0,0,0,0,0,0,0,0,0,0,0,0,0,0,0,0,0,0,0,0,0,0,0,0,0,0,0,0,0,0,0,0,0,0,0,0,0,0,0,0,0,0,0,0,0,0,0,0,0,0,0,2.2609,2.2609,0,2.2685,2.2686,2.2687,2.2677,2.2675,2.2674,2.2673,2.275,2.2753,2.2756,0,0,0,0,0,0,0,0,0,0,0,0,0,2.2449,2.2452,2.2608,2.2609,2.261,2.2685,2.2686,2.2687,2.2677,2.2675,2.2674,2.2672,2.2749,2.2753,2.2757,0,0,0,0,0,0,0,0,0,0,0,0,0,2.2522,2.2453,2.2608,2.2614,2.2616,2.2685,2.2686,2.2687,2.2677,2.2675,2.2673,2.2672,2.2748,2.2752,2.2757,2.2825,0,0,2.2772,2.2774,0,0,0,0,0,0,0,0,2.2517,2.2527,2.2612,2.2614,2.2616,2.2669,2.2658,2.2734,2.2678,2.2654,2.2673,2.2671,2.2725,2.2731,2.275,2.2829,2.2832,2.2772,2.2775,2.2777,2.2779,0,0,0,0,0,0,0,2.2512,2.2524,2.2639,2.2614,2.2616,2.2612,2.262,2.2673,2.2699,2.2656,2.2655,2.2664,2.2725,2.2745,2.2752,2.2833,2.2772,2.2777,2.278,2.2782,2.2968,2.2969,0,0,0,0,0,0,2.2506,2.252,2.2636,2.2641,2.2561,2.2616,2.2625,2.2654,2.2698,2.2703,2.2666,2.2664,2.2738,2.2746,2.2754,2.2834,2.2777,2.2782,2.2785,2.2966,2.2968,2.297,0,0,0,0,0,0,2.2503,2.2517,2.2633,2.258,2.2595,2.2621,2.2653,2.2657,2.2677,2.2706,2.271,2.2682,2.2737,2.2747,2.2807,2.2837,2.2784,2.2789,2.2963,2.2966,2.2969,2.2996,0,0,0,0,0,0,2.2498,2.2516,2.2543,2.2581,2.2598,2.2686,2.2655,2.2659,2.2685,2.2683,2.2722,2.2727,2.2736,2.28,2.2812,2.2842,2.2792,2.2961,2.2965,2.2968,2.2992,2.2999,2.3005,0,0,0,0,0,2.2493,2.2548,2.2544,2.2558,2.2632,2.2688,2.2697,2.2707,2.2688,2.2714,2.2732,2.2725,2.2832,2.2806,2.2819,2.2852,2.2959,2.2963,2.2968,2.2989,2.2998,2.3005,0,0,0,0,0,0,2.2512,2.2553,2.255,2.2619,2.265,2.2686,2.272,2.2716,2.2753,2.2749,2.276,2.2769,2.2828,2.2846,2.2817,2.2918,2.2892,2.29,2.2904,2.2912,2.2919,2.2913,2.2796,0,0,0,0,0,2.2525,2.2567,2.26,2.2658,2.2673,2.2694,2.2718,2.2723,2.2755,2.2768,2.2791,2.2822,2.2862,2.2888,2.2927,2.2995,2.3002,2.3024,2.303,2.3035,2.3041,2.3075,2.3085,2.2985,2.2985,2.2985,0,0,2.2551,2.2578,2.2604,2.2662,2.2687,2.2729,2.2705,2.2751,2.2782,2.2775,2.2832,2.285,2.2885,2.2948,2.2977,2.2965,2.307,2.3041,2.3045,2.3048,2.3081,2.309,2.3099,2.2988,2.2988,2.2987,0,0,2.2619,2.2645,2.2695,2.2719,2.2757,2.2769,2.2781,2.2817,2.2829,2.2886,2.2881,2.2917,2.2987,2.3011,2.3032,2.3107,2.31,2.3119,2.3153,2.3186,2.3193,2.32,2.3224,2.3233,2.3125,2.3125,2.3125,0,2.2646,2.2711,2.272,2.2766,2.2791,2.2786,2.2835,2.2859,2.2906,2.2923,2.2909,2.2994,2.3017,2.3084,2.3102,2.312,2.3132,2.3114,2.3192,2.3199,2.3205,2.3228,2.3238,2.3127,2.3127,2.3127,2.3126,0,2.2741,2.2785,2.282,2.2866,2.2895,2.2942,2.2957,2.2985,2.2986,2.3,2.3057,2.3084,2.3127,2.3144,2.3146,2.321,2.3201,2.319,2.3164,2.3216,2.3238,2.3247,2.313,2.3129,2.3128,2.3128,0,0,2.2825,2.2874,2.2886,2.2905,2.2945,2.2979,2.3025,2.3067,2.3088,2.3121,2.3158,2.3216,2.3204,2.3229,2.3233,2.3263,2.3316,2.3247,2.3248,2.3257,2.3385,2.3393,2.3403,2.3313,2.3315,2.3316,2.3382,0,2.2895,2.2977,2.2986,2.3058,2.3097,2.3093,2.3132,2.316,2.3173,2.3207,2.3222,2.3262,2.3245,2.3259,2.3288,2.3304,2.3342,2.3299,2.3346,2.3347,2.3335,2.3415,2.3424,2.3484,2.339,2.3392,2.3393,0,2.2989,2.3023,2.3099,2.3131,2.3147,2.3183,2.322,2.3254,2.3284,2.3291,2.3317,2.3318,2.3363,2.3336,2.3397,2.3367,2.3386,2.3397,2.34,2.3403,2.3372,2.3419,2.3504,2.3512,2.3407,2.3406,2.3405,0,2.3039,2.3105,2.3158,2.3175,2.3214,2.3238,2.3255,2.3284,2.3307,2.3339,2.3354,2.3392,2.3411,2.3439,2.3449,2.3429,2.3509,2.3483,2.3514,2.3514,2.3531,2.3529,2.3618,2.3546,2.3546,2.3546,2.3545,0,2.3116,2.3162,2.318,2.3213,2.3264,2.3273,2.3322,2.3338,2.3362,2.3397,2.3395,2.3427,2.3438,2.3471,2.3479,2.3527,2.3536,2.3542,2.3543,2.3542,2.354,2.3553,2.3549,2.3548,2.3547,2.3547,2.3547,0,2.3181,2.3195,2.3252,2.3284,2.3292,2.3328,2.3354,2.3385,2.3397,2.344,2.345,2.3469,2.3508,2.352,2.3568,2.3572,2.3627,2.3626,2.3617,2.3617,2.3646,2.3643,2.3746,2.3759,2.3679,2.368,2.3681,0,2.3228,2.3263,2.3298,2.332,2.3338,2.3375,2.3399,2.3408,2.3433,2.3468,2.3493,2.3532,2.3563,2.3624,2.3642,2.3677,2.3675,2.3708,2.368,2.3676,2.3672,2.3669,2.3672,2.3713,2.3714,2.3715,2.3715,0,2.331,2.3314,2.3349,2.3385,2.3413,2.3442,2.347,2.3488,2.3501,2.3528,2.3568,2.3592,2.3639,2.3676,2.3711,2.3727,2.3723,2.3724,2.3733,2.3731,2.3723,2.3725,2.363,2.3722,2.3721,2.3721,2.372,2.372,2.3366,2.3395,2.3424,2.3461,2.3483,2.3508,2.3538,2.3553,2.3586,2.3625,2.3628,2.367,2.3697,2.3743,2.3761,2.3793,2.3783,2.3796,2.3799,2.3802,2.3803,2.3719,2.3799,2.3799,2.3799,2.3799,2.3799,0,2.3445,2.3463,2.3497,2.3535,2.3564,2.3558,2.3588,2.3612,2.3649,2.3674,2.3704,2.3748,2.3783,2.3802,2.3837,2.3858,2.3857,2.3867,2.3865,2.3868,2.3811,2.3799,2.3867,2.3867,2.3867,2.3867,2.3867,2.3867,2.349,2.3539,2.3547,2.3606,2.3623,2.3664,2.3681,2.3703,2.3723,2.3772,2.3801,2.3814,2.3836,2.3872,2.3903,2.3907,2.3919,2.393,2.3933,2.3879,2.3872,2.3865,2.3854,2.3933,2.3933,2.3987,2.3988,2.3988]},{"header":{"parameterUnit":"m.s-1","parameterCategory":1,"la1":30.2991,"la2":30.254,"lo1":-89.0895,"lo2":-89.0444,"dy":0.0017,"dx":0.0017,"nx":28,"ny":28,"refTime":"2024-07-17T03:00:00:Z","depth":0,"parameterNumber":3,"parameterNumberName":"V-component_of_WINDS"},"data":[0,0,0,0,0,0,0,0,0,0,0,0,0,0,0,0,0,0,0,0,0,0,0,0,0,0,0,0,0,0,0,0,0,0,0,0,0,0,0,0,0,0,0,0,0,0,0,0,0,0,0,0,0,0,0,0,0,0,5.6579,5.6579,0,5.657,5.657,5.6569,5.6498,5.6496,5.6494,5.6492,5.6484,5.6485,5.6487,0,0,0,0,0,0,0,0,0,0,0,0,0,5.6534,5.6535,5.6579,5.6579,5.6579,5.657,5.657,5.6569,5.6498,5.6496,5.6494,5.6492,5.6483,5.6485,5.6487,0,0,0,0,0,0,0,0,0,0,0,0,0,5.6542,5.6536,5.6579,5.6542,5.6538,5.657,5.657,5.6569,5.6498,5.6496,5.6493,5.6491,5.6483,5.6485,5.6487,5.6553,0,0,5.6494,5.6494,0,0,0,0,0,0,0,0,5.6542,5.6544,5.6547,5.6544,5.6541,5.6532,5.6551,5.6564,5.6499,5.6514,5.6492,5.6489,5.6502,5.6502,5.6507,5.6553,5.6553,5.6494,5.6495,5.6496,5.6497,0,0,0,0,0,0,0,5.6541,5.6544,5.6575,5.6547,5.6543,5.6526,5.6524,5.6553,5.6523,5.6512,5.6507,5.6507,5.65,5.6505,5.6506,5.6553,5.6494,5.6496,5.6497,5.6498,5.6652,5.6654,0,0,0,0,0,0,5.6546,5.6544,5.6575,5.6575,5.6535,5.6529,5.6527,5.6538,5.6522,5.6517,5.6509,5.6503,5.6502,5.6504,5.6505,5.6581,5.6496,5.6498,5.6499,5.6649,5.6652,5.6655,0,0,0,0,0,0,5.6545,5.6549,5.6576,5.6558,5.656,5.6532,5.6545,5.6539,5.6544,5.652,5.6514,5.652,5.65,5.6502,5.6542,5.658,5.6499,5.6501,5.6646,5.665,5.6654,5.6734,0,0,0,0,0,0,5.6544,5.655,5.6575,5.6559,5.6561,5.6612,5.6547,5.654,5.6547,5.654,5.6528,5.6524,5.6498,5.6539,5.6544,5.6581,5.6503,5.6642,5.6648,5.6653,5.6727,5.674,5.6751,0,0,0,0,0,5.6543,5.6598,5.6576,5.658,5.6592,5.6615,5.6616,5.6585,5.6551,5.6575,5.656,5.6524,5.6575,5.6544,5.6548,5.6587,5.664,5.6646,5.6652,5.6722,5.6738,5.6751,0,0,0,0,0,0,5.6619,5.6595,5.6571,5.6622,5.6621,5.6603,5.6633,5.6603,5.6611,5.6604,5.6566,5.6564,5.6609,5.6602,5.6567,5.665,5.6601,5.6609,5.6653,5.6667,5.6679,5.6679,5.6504,0,0,0,0,0,5.6642,5.6662,5.664,5.6688,5.6688,5.6661,5.667,5.6646,5.6644,5.6643,5.663,5.6629,5.6644,5.6656,5.6669,5.6727,5.6722,5.6755,5.6767,5.6777,5.6784,5.6813,5.6827,5.6676,5.6676,5.6676,0,0,5.6689,5.6678,5.6694,5.6703,5.6699,5.6721,5.6661,5.6687,5.6703,5.6647,5.6682,5.6674,5.667,5.6719,5.6739,5.6714,5.6824,5.6785,5.6793,5.6794,5.6821,5.6835,5.6848,5.668,5.668,5.6679,0,0,5.6786,5.678,5.6818,5.6816,5.6811,5.6792,5.6801,5.6787,5.6779,5.6815,5.6773,5.6791,5.6819,5.6817,5.6821,5.6917,5.6884,5.6922,5.6983,5.7012,5.7023,5.7034,5.7067,5.7079,5.6929,5.6929,5.6929,0,5.6845,5.6876,5.6842,5.6871,5.6875,5.6825,5.6864,5.6863,5.6863,5.6867,5.6839,5.6872,5.6866,5.6913,5.6937,5.6941,5.695,5.6923,5.7024,5.7034,5.7043,5.7075,5.7087,5.6934,5.6933,5.6933,5.6932,0,5.6948,5.6971,5.7002,5.7003,5.7011,5.7045,5.7016,5.7029,5.7004,5.6989,5.7025,5.7016,5.7026,5.7036,5.7013,5.708,5.7064,5.7031,5.6981,5.7063,5.7092,5.7103,5.694,5.6939,5.6937,5.6936,0,0,5.7093,5.7073,5.7085,5.7084,5.7075,5.7091,5.7123,5.7132,5.7143,5.7145,5.7169,5.7194,5.7163,5.7166,5.7143,5.7168,5.7243,5.7131,5.7131,5.7152,5.7315,5.734,5.7354,5.7222,5.7224,5.7226,5.7315,0,5.7185,5.7236,5.7206,5.7261,5.7281,5.7234,5.7261,5.7258,5.7244,5.7259,5.7244,5.7261,5.722,5.7221,5.7245,5.7229,5.7276,5.7223,5.7244,5.7245,5.7245,5.7369,5.7395,5.748,5.7327,5.7328,5.733,0,5.7299,5.7304,5.7362,5.7347,5.7354,5.7379,5.7385,5.74,5.7395,5.7383,5.7387,5.7357,5.7387,5.7338,5.7378,5.7342,5.7349,5.7343,5.7346,5.7346,5.7292,5.7371,5.7506,5.7518,5.7347,5.7346,5.7345,0,5.7396,5.7418,5.7455,5.7456,5.7441,5.7459,5.7454,5.7447,5.7454,5.7459,5.7463,5.7472,5.7477,5.7485,5.7458,5.7425,5.7501,5.745,5.7491,5.7492,5.7508,5.7507,5.7645,5.7515,5.7515,5.7515,5.7515,0,5.7501,5.7538,5.7498,5.7521,5.7561,5.7526,5.7566,5.7556,5.755,5.757,5.753,5.755,5.7513,5.7529,5.7509,5.7544,5.7547,5.7538,5.7532,5.7541,5.7542,5.7544,5.7537,5.7518,5.7517,5.7517,5.7516,0,5.7617,5.7592,5.7629,5.7611,5.7607,5.7637,5.7622,5.7642,5.7626,5.7651,5.7655,5.763,5.7646,5.762,5.7634,5.762,5.7669,5.7654,5.767,5.7665,5.7707,5.7703,5.785,5.7867,5.7728,5.7729,5.773,0,5.7685,5.7712,5.7697,5.7707,5.7703,5.772,5.7727,5.7694,5.7703,5.77,5.7721,5.7734,5.7742,5.7771,5.7753,5.7764,5.7748,5.7799,5.7749,5.7757,5.7748,5.7746,5.7748,5.7809,5.7811,5.7812,5.7813,0,5.7808,5.7794,5.7805,5.7812,5.7821,5.7825,5.7827,5.7837,5.7803,5.7815,5.7831,5.7837,5.7851,5.7864,5.787,5.7864,5.7833,5.7829,5.7839,5.7848,5.7855,5.785,5.7696,5.7825,5.7824,5.7823,5.7823,5.7822,5.7901,5.7922,5.7914,5.7928,5.7925,5.7927,5.7945,5.793,5.7943,5.7951,5.7931,5.7952,5.7946,5.7951,5.7949,5.7964,5.7942,5.7957,5.796,5.7964,5.797,5.7854,5.7966,5.7965,5.7965,5.7965,5.7964,0,5.802,5.8013,5.8026,5.8028,5.8039,5.8008,5.8008,5.8019,5.8037,5.8035,5.8044,5.8062,5.8075,5.8058,5.8068,5.8084,5.807,5.8087,5.8085,5.8084,5.799,5.798,5.8099,5.8099,5.8098,5.8098,5.8098,5.8098,5.8084,5.8118,5.8103,5.8135,5.8128,5.8147,5.8149,5.8151,5.8148,5.817,5.818,5.8169,5.8161,5.817,5.818,5.8175,5.818,5.8202,5.8192,5.8104,5.8091,5.8078,5.8069,5.8204,5.8204,5.8285,5.8286,5.8286]}]]